Location: Copeville
(33.0796°N, 96.4155°W)
Time: 10:55:16
(UTC+00:00)

Cosmos 1805 Rocket - Pass Details

Date: 08 July 2022
Orbit: 605 x 629 km, 82.5° (Epoch: 09 August)

Event Time Altitude Azimuth Distance (km) Brightness Sun altitude
Exits shadow 10:09:24 16° 267° (W) 1,629 5.2 -13.9°
Maximum altitude 10:10:26 17° 284° (WNW) 1,569 5.3 -13.7°
Drops below altitude 10° 10:13:20 10° 326° (NW) 1,983 6.2 -13.2°
Sets 10:16:15 0° 346° (NNW) 2,888 7.3 -12.7°
